Findlay, OH

10:43 AM EST on November 20, 2017 (GMT -0500)
Findlay

Weather History for KFDY - December, 2014

Change the Weather History Date:

Thursday, December 25, 2014

  Actual Average Record
Temperature  
Mean Temperature 36 °F -  
Max Temperature 39 °F 31 °F 63 °F (1982)
Min Temperature 33 °F 17 °F -17 °F (2004)
Degree Days  
Heating Degree Days 29    
Moisture  
Dew Point 32 °F    
Average Humidity 82    
Maximum Humidity 89    
Minimum Humidity 70    
Precipitation  
Precipitation 0.00 in - - ()
Sea Level Pressure  
Sea Level Pressure 29.93 in    
Wind  
Wind Speed 17 mph (WSW)    
Max Wind Speed 23 mph    
Max Gust Speed 32 mph    
Visibility 10 miles    
Events Rain    
Averages and records for this station are not official NWS values.
T = Trace of Precipitation, MM = Missing Value Source: NWS Daily Summary

Daily Weather History Graph

Daily Weather History Graph

Search for Another Location

Airport or City:

Trip Planner

Search our weather history database for the weather conditions in past years. The results will help you decide how hot, cold, wet, or windy it might be!

Date:

Astronomy

Dec. 25, 2014 Rise Set
Actual Time 7:57 AM EST 5:11 PM EST
Civil Twilight 7:26 AM EST 5:42 PM EST
Nautical Twilight 6:52 AM EST 6:17 PM EST
Astronomical Twilight 6:18 AM EST 6:51 PM EST
Moon 10:28 AM EST (12/25) 9:46 PM EST (12/25)
Length of Visible Light 10h 16m
Length of Day
9h 13m
Waxing Crescent, 17% of the Moon is Illuminated
Dec 25
Waxing Crescent
Dec 28
First Quarter
Jan 4
Full
Jan 13
Last Quarter
Jan 20
New

Hourly Weather History & Observations

Time (EST) Temp. Windchill Dew Point Humidity Pressure Visibility Wind Dir Wind Speed Gust Speed Precip Events Conditions
12:53 AM 37.9 °F 27.1 °F 34.0 °F 86% 29.60 in 10.0 mi WSW 23.0 mph 31.1 mph N/A   Overcast
1:23 AM 37.9 °F 28.2 °F 34.0 °F 86% 29.62 in 10.0 mi WSW 18.4 mph 24.2 mph N/A   Overcast
1:53 AM 37.9 °F 28.2 °F 34.0 °F 86% 29.63 in 10.0 mi WSW 18.4 mph 25.3 mph N/A   Overcast
2:53 AM 37.9 °F 27.6 °F 33.1 °F 83% 29.68 in 10.0 mi WSW 20.7 mph 29.9 mph 0.00 in   Overcast
3:01 AM 37.9 °F 27.9 °F 33.1 °F 83% 29.68 in 10.0 mi WSW 19.6 mph 27.6 mph N/A   Overcast
3:53 AM 37.9 °F 27.9 °F 33.1 °F 83% 29.71 in 10.0 mi WSW 19.6 mph 32.2 mph N/A   Overcast
4:43 AM 37.0 °F 27.4 °F 33.1 °F 86% 29.73 in 10.0 mi WSW 17.3 mph 26.5 mph N/A   Overcast
4:53 AM 37.0 °F 27.0 °F 33.1 °F 86% 29.73 in 10.0 mi WSW 18.4 mph 26.5 mph N/A   Overcast
5:23 AM 37.9 °F 28.5 °F 33.1 °F 83% 29.75 in 10.0 mi WSW 17.3 mph 25.3 mph N/A   Overcast
5:33 AM 37.9 °F 27.9 °F 33.1 °F 83% 29.76 in 10.0 mi WSW 19.6 mph 26.5 mph N/A   Overcast
5:53 AM 37.9 °F 28.5 °F 33.1 °F 83% 29.78 in 10.0 mi West 17.3 mph 26.5 mph N/A   Overcast
6:53 AM 37.9 °F 27.9 °F 33.1 °F 83% 29.84 in 10.0 mi West 19.6 mph - N/A   Overcast
7:14 AM 37.9 °F 29.2 °F 33.1 °F 83% 29.85 in 10.0 mi WSW 15.0 mph - 0.00 in Rain Light Rain
7:53 AM 37.9 °F 28.5 °F 33.1 °F 83% 29.89 in 10.0 mi West 17.3 mph - 0.00 in   Overcast
8:12 AM 37.9 °F 29.2 °F 33.1 °F 83% 29.89 in 10.0 mi West 15.0 mph - N/A   Overcast
8:51 AM 37.4 °F 29.3 °F 33.8 °F 87% 29.91 in 8.0 mi WSW 12.7 mph - 0.00 in Rain Light Rain
8:53 AM 37.0 °F 28.9 °F 33.1 °F 86% 29.92 in 8.0 mi WSW 12.7 mph - 0.00 in Rain Light Rain
9:00 AM 37.0 °F 27.7 °F 33.1 °F 86% 29.92 in 10.0 mi WSW 16.1 mph - 0.00 in   Overcast
9:32 AM 37.0 °F 27.7 °F 34.0 °F 89% 29.94 in 9.0 mi WSW 16.1 mph - 0.00 in Rain Light Rain
9:53 AM 37.9 °F 30.0 °F 34.0 °F 86% 29.96 in 10.0 mi WSW 12.7 mph - 0.00 in Rain Light Rain
10:12 AM 37.9 °F 29.2 °F 33.1 °F 83% 29.96 in 10.0 mi WSW 15.0 mph - 0.00 in   Overcast
10:39 AM 39.0 °F 30.3 °F 34.0 °F 82% 29.98 in 10.0 mi SW 16.1 mph 24.2 mph 0.00 in   Overcast
10:53 AM 39.0 °F 29.9 °F 33.1 °F 79% 30.00 in 10.0 mi WSW 17.3 mph - 0.00 in   Overcast
11:53 AM 39.0 °F 29.6 °F 30.0 °F 70% 30.02 in 10.0 mi West 18.4 mph 27.6 mph N/A   Overcast
12:53 PM 37.9 °F 28.5 °F 30.0 °F 73% 30.04 in 10.0 mi WSW 17.3 mph 26.5 mph N/A   Overcast
1:53 PM 39.0 °F 29.6 °F 30.9 °F 73% 30.03 in 10.0 mi SW 18.4 mph 28.8 mph N/A   Overcast
2:53 PM 39.0 °F 30.6 °F 30.9 °F 73% 30.06 in 10.0 mi WSW 15.0 mph 24.2 mph N/A   Overcast
3:53 PM 39.0 °F 32.8 °F 30.9 °F 73% 30.07 in 10.0 mi WSW 9.2 mph - N/A   Overcast
4:53 PM 39.0 °F 31.8 °F 30.9 °F 73% 30.11 in 10.0 mi WSW 11.5 mph - N/A   Overcast
5:53 PM 37.9 °F 29.2 °F 30.0 °F 73% 30.13 in 10.0 mi SW 15.0 mph 21.9 mph N/A   Overcast
6:53 PM 37.0 °F 31.0 °F 30.9 °F 79% 30.14 in 10.0 mi SSW 8.1 mph - N/A   Overcast
7:53 PM 37.0 °F 31.0 °F 30.9 °F 79% 30.17 in 10.0 mi SSW 8.1 mph - N/A   Overcast
8:38 PM 35.1 °F 28.6 °F 30.0 °F 82% 30.15 in 10.0 mi South 8.1 mph - N/A   Scattered Clouds
8:53 PM 33.1 °F 25.5 °F 28.9 °F 85% 30.16 in 10.0 mi South 9.2 mph - N/A   Clear
9:53 PM 33.1 °F 26.1 °F 28.9 °F 85% 30.15 in 10.0 mi SSE 8.1 mph - N/A   Clear
10:53 PM 33.1 °F 25.5 °F 28.9 °F 85% 30.15 in 10.0 mi SSE 9.2 mph - N/A   Clear
11:53 PM 33.1 °F 25.5 °F 28.9 °F 85% 30.14 in 10.0 mi South 9.2 mph - N/A   Clear